This is the latest recevied weather packets stored in our database for station/object IU0KRR-10. If no packets are shown the sender has not sent any weather packets the latest 10 day(s).
| Time | Temp. | Humidity | Pressure | Rain* | Wind** | Luminosity | Snow |
|---|---|---|---|---|---|---|---|
| 1787819077 | 26.11° C | 37% | 879 hPa | - | - | - | - |
| 1787818158 | 25.56° C | 41% | 879.1 hPa | - | - | - | - |
| 1787817238 | 25° C | 43% | 879.1 hPa | - | - | - | - |
| 1787816319 | 25° C | 44% | 878.9 hPa | - | - | - | - |
| 1787815490 | 24.44° C | 46% | 879 hPa | - | - | - | - |
| 1787814571 | 23.89° C | 46% | 878.7 hPa | - | - | - | - |
| 1787813559 | 23.89° C | 49% | 878.5 hPa | - | - | - | - |
| 1787812640 | 22.78° C | 53% | 878.6 hPa | - | - | - | - |
| 1787811720 | 22.22° C | 56% | 878.3 hPa | - | - | - | - |
| 1787810801 | 21.67° C | 61% | 878.5 hPa | - | - | - | - |
| 1787809877 | 21.67° C | 70% | 878.5 hPa | - | - | - | - |
| 1787808959 | 21.11° C | 70% | 878.2 hPa | - | - | - | - |
| 1787808131 | 21.11° C | 72% | 878 hPa | - | - | - | - |
| 1787807121 | 21.11° C | 72% | 877.7 hPa | - | - | - | - |
| 1787806294 | 21.11° C | 72% | 877.5 hPa | - | - | - | - |
| 1787805375 | 21.11° C | 56% | 877.1 hPa | - | - | - | - |
| 1787804360 | 20.56° C | 57% | 877.4 hPa | - | - | - | - |
| 1787802526 | 20.56° C | 56% | 878 hPa | - | - | - | - |
| 1787801607 | 20.56° C | 58% | 878.3 hPa | - | - | - | - |
| 1787800689 | 20.56° C | 62% | 878.3 hPa | - | - | - | - |
| 1787799773 | 20.56° C | 66% | 878.6 hPa | - | - | - | - |
| 1787798854 | 20.56° C | 64% | 878.4 hPa | - | - | - | - |
| 1787798113 | 21.11° C | 52% | 878.3 hPa | - | - | - | - |
| 1787797012 | 21.11° C | 52% | 877.9 hPa | - | - | - | - |
| 1787796271 | 21.67° C | 72% | 878 hPa | - | - | - | - |
* Rain since midnight (hover to see other rain measurements)
** Current wind speed in m/s (hover to see current wind gust speed)